| time (UTC) | temp F | wind direction | speed knots | gust knots | rain 1hr in | rain 24hr in | rain mn in | humidity % | barometer mb |
| 20260506015202 | 78 | 182 | 3.5 | 5.2 | 0.00 | 0.00 | 0.00 | 78 | 100.6 |
| 20260506014202 | 79 | 177 | 1.7 | 3.5 | 0.00 | 0.00 | 0.00 | 78 | 100.6 |
| 20260506013702 | 79 | 183 | 0.9 | 5.2 | 0.00 | 0.00 | 0.00 | 78 | 100.6 |
| 20260506012702 | 79 | 225 | 1.7 | 3.5 | 0.00 | 0.00 | 0.00 | 77 | 100.6 |
| 20260506011202 | 80 | 185 | 1.7 | 4.3 | 0.00 | 0.00 | 0.00 | 76 | 100.6 |
| 20260506010702 | 80 | 204 | 3.5 | 5.2 | 0.00 | 0.00 | 0.00 | 76 | 100.6 |
| 20260506010203 | 80 | 196 | 1.7 | 5.2 | 0.00 | 0.00 | 0.00 | 75 | 100.6 |
| 20260506005702 | 80 | 200 | 0.9 | 4.3 | 0.00 | 0.00 | 0.00 | 74 | 100.6 |
| 20260506005202 | 81 | 171 | 0.0 | 3.5 | 0.00 | 0.00 | 0.00 | 73 | 100.6 |
| 20260506004203 | 81 | 198 | 2.6 | 3.5 | 0.00 | 0.00 | 0.00 | 71 | 100.6 |
| 20260506003703 | 81 | 238 | 2.6 | 4.3 | 0.00 | 0.00 | 0.00 | 70 | 100.5 |
| 20260506003202 | 81 | 225 | 1.7 | 4.3 | 0.00 | 0.00 | 0.00 | 69 | 100.5 |
| 20260506002702 | 81 | 225 | 1.7 | 5.2 | 0.00 | 0.00 | 0.00 | 69 | 100.5 |
| 20260506002202 | 81 | 247 | 3.5 | 5.2 | 0.00 | 0.00 | 0.00 | 69 | 100.5 |
| 20260506001702 | 81 | 181 | 4.3 | 5.2 | 0.00 | 0.00 | 0.00 | 69 | 100.5 |
| 20260506001203 | 82 | 235 | 1.7 | 4.3 | 0.00 | 0.00 | 0.00 | 69 | 100.5 |
| 20260506000702 | 82 | 227 | 2.6 | 5.2 | 0.00 | 0.00 | 0.00 | 69 | 100.5 |
| 20260506000204 | 81 | 231 | 1.7 | 3.5 | 0.00 | 0.00 | 0.00 | 69 | 100.5 |
| 20260505235703 | 82 | 190 | 7.0 | 7.0 | 0.00 | 0.00 | 0.00 | 69 | 100.5 |
| 20260505235202 | 82 | 201 | 5.2 | 7.0 | 0.00 | 0.00 | 0.00 | 69 | 100.5 |
| 20260505233703 | 82 | 229 | 1.7 | 6.1 | 0.00 | 0.00 | 0.00 | 69 | 100.5 |
| 20260505233202 | 82 | 189 | 5.2 | 7.0 | 0.00 | 0.00 | 0.00 | 69 | 100.5 |
| 20260505232202 | 82 | 221 | 2.6 | 7.0 | 0.00 | 0.00 | 0.00 | 69 | 100.5 |
| 20260505231202 | 82 | 109 | 1.7 | 5.2 | 0.00 | 0.00 | 0.00 | 68 | 100.5 |
| 20260505230703 | 82 | 198 | 3.5 | 8.7 | 0.00 | 0.00 | 0.00 | 68 | 100.5 |
| 20260505230202 | 82 | 198 | 1.7 | 9.6 | 0.00 | 0.00 | 0.00 | 68 | 100.5 |
| 20260505225701 | 82 | 199 | 3.5 | 3.5 | 0.00 | 0.00 | 0.00 | 67 | 100.5 |
| 20260505225202 | 83 | 227 | 3.5 | 6.1 | 0.00 | 0.00 | 0.00 | 66 | 100.5 |
| 20260505224702 | 83 | 217 | 3.5 | 5.2 | 0.00 | 0.00 | 0.00 | 65 | 100.5 |
| 20260505223702 | 83 | 250 | 1.7 | 7.0 | 0.00 | 0.00 | 0.00 | 65 | 100.5 |
| 20260505223202 | 83 | 200 | 3.5 | 5.2 | 0.00 | 0.00 | 0.00 | 65 | 100.5 |
| 20260505222702 | 82 | 207 | 2.6 | 5.2 | 0.00 | 0.00 | 0.00 | 65 | 100.5 |
| 20260505222202 | 82 | 189 | 3.5 | 7.8 | 0.00 | 0.00 | 0.00 | 65 | 100.5 |
| 20260505221702 | 82 | 192 | 4.3 | 7.8 | 0.00 | 0.00 | 0.00 | 66 | 100.5 |
| 20260505220702 | 82 | 205 | 1.7 | 7.8 | 0.00 | 0.00 | 0.00 | 66 | 100.5 |
| 20260505215702 | 83 | 177 | 7.0 | 10.4 | 0.00 | 0.00 | 0.00 | 65 | 100.5 |
| 20260505215202 | 83 | 192 | 4.3 | 9.6 | 0.00 | 0.00 | 0.00 | 65 | 100.5 |
| 20260505214702 | 83 | 200 | 6.1 | 10.4 | 0.00 | 0.00 | 0.00 | 65 | 100.6 |
| 20260505214203 | 83 | 236 | 2.6 | 10.4 | 0.00 | 0.00 | 0.00 | 65 | 100.6 |
| 20260505213702 | 83 | 232 | 4.3 | 9.6 | 0.00 | 0.00 | 0.00 | 64 | 100.6 |
| 20260505213202 | 82 | 230 | 3.5 | 7.0 | 0.00 | 0.00 | 0.00 | 66 | 100.6 |
| 20260505212702 | 82 | 206 | 5.2 | 7.0 | 0.00 | 0.00 | 0.00 | 66 | 100.6 |
| 20260505212203 | 82 | 240 | 4.3 | 14.8 | 0.00 | 0.00 | 0.00 | 66 | 100.6 |
| 20260505211702 | 83 | 183 | 5.2 | 12.2 | 0.00 | 0.00 | 0.00 | 65 | 100.6 |
| 20260505211202 | 82 | 180 | 1.7 | 11.3 | 0.00 | 0.00 | 0.00 | 67 | 100.6 |
| 20260505210702 | 82 | 197 | 4.3 | 10.4 | 0.00 | 0.00 | 0.00 | 67 | 100.6 |
| 20260505210202 | 82 | 183 | 2.6 | 8.7 | 0.00 | 0.00 | 0.00 | 67 | 100.6 |
| 20260505205702 | 82 | 181 | 3.5 | 11.3 | 0.00 | 0.00 | 0.00 | 67 | 100.6 |
| 20260505205202 | 82 | 193 | 1.7 | 11.3 | 0.00 | 0.00 | 0.00 | 67 | 100.6 |
| 20260505203702 | 82 | 167 | 0.9 | 10.4 | 0.00 | 0.00 | 0.00 | 68 | 100.6 |
| 20260505202703 | 81 | 231 | 3.5 | 9.6 | 0.00 | 0.00 | 0.00 | 68 | 100.7 |
| 20260505202202 | 82 | 158 | 3.5 | 8.7 | 0.00 | 0.00 | 0.00 | 69 | 100.7 |
| 20260505201702 | 81 | 205 | 2.6 | 10.4 | 0.00 | 0.00 | 0.00 | 69 | 100.7 |
| 20260505201202 | 81 | 243 | 3.5 | 5.2 | 0.00 | 0.00 | 0.00 | 69 | 100.7 |
| 20260505200702 | 81 | 188 | 3.5 | 7.0 | 0.00 | 0.00 | 0.00 | 70 | 100.7 |
| 20260505200202 | 81 | 175 | 7.0 | 9.6 | 0.00 | 0.00 | 0.00 | 69 | 100.7 |
| 20260505195202 | 81 | 219 | 5.2 | 12.2 | 0.00 | 0.00 | 0.00 | 69 | 100.7 |
| 20260505194703 | 82 | 189 | 6.1 | 12.2 | 0.00 | 0.00 | 0.00 | 68 | 100.7 |
| 20260505194202 | 82 | 224 | 5.2 | 7.0 | 0.00 | 0.00 | 0.00 | 68 | 100.7 |
| 20260505193703 | 82 | 221 | 7.0 | 10.4 | 0.00 | 0.00 | 0.00 | 68 | 100.7 |
| 20260505192702 | 81 | 203 | 6.1 | 9.6 | 0.00 | 0.00 | 0.00 | 67 | 100.7 |
| 20260505192203 | 81 | 239 | 3.5 | 7.8 | 0.00 | 0.00 | 0.00 | 67 | 100.7 |
| 20260505191702 | 81 | 239 | 2.6 | 5.2 | 0.00 | 0.00 | 0.00 | 68 | 100.7 |
| 20260505191202 | 81 | 213 | 3.5 | 5.2 | 0.00 | 0.00 | 0.00 | 68 | 100.7 |
| 20260505190703 | 80 | 252 | 5.2 | 5.2 | 0.00 | 0.00 | 0.00 | 68 | 100.7 |
| 20260505190202 | 80 | 211 | 0.9 | 7.0 | 0.00 | 0.00 | 0.00 | 70 | 100.7 |
| 20260505185702 | 80 | 233 | 2.6 | 5.2 | 0.00 | 0.00 | 0.00 | 68 | 100.7 |
| 20260505185202 | 79 | 234 | 2.6 | 5.2 | 0.00 | 0.00 | 0.00 | 70 | 100.7 |
| 20260505184702 | 80 | 203 | 3.5 | 7.0 | 0.00 | 0.00 | 0.00 | 70 | 100.7 |
| 20260505184202 | 79 | 247 | 2.6 | 4.3 | 0.00 | 0.00 | 0.00 | 72 | 100.7 |
| 20260505183702 | 79 | 176 | 4.3 | 6.1 | 0.00 | 0.00 | 0.00 | 72 | 100.7 |
| 20260505183202 | 78 | 213 | 2.6 | 5.2 | 0.00 | 0.00 | 0.00 | 72 | 100.8 |
| 20260505182703 | 77 | 206 | 4.3 | 7.8 | 0.00 | 0.00 | 0.00 | 73 | 100.8 |
| 20260505182202 | 77 | 238 | 4.3 | 7.0 | 0.00 | 0.00 | 0.00 | 74 | 100.8 |
| 20260505181702 | 77 | 235 | 1.7 | 7.0 | 0.00 | 0.00 | 0.00 | 74 | 100.8 |
| 20260505181202 | 76 | 180 | 4.3 | 6.1 | 0.00 | 0.00 | 0.00 | 76 | 100.8 |
| 20260505180702 | 76 | 219 | 1.7 | 7.0 | 0.00 | 0.00 | 0.00 | 76 | 100.8 |
| 20260505180202 | 76 | 213 | 4.3 | 6.1 | 0.00 | 0.00 | 0.00 | 76 | 100.8 |
| 20260505175702 | 76 | 239 | 5.2 | 7.0 | 0.00 | 0.00 | 0.00 | 76 | 100.8 |
| 20260505175203 | 76 | 227 | 2.6 | 6.1 | 0.00 | 0.00 | 0.00 | 77 | 100.8 |
| 20260505174702 | 76 | 209 | 4.3 | 6.1 | 0.00 | 0.00 | 0.00 | 78 | 100.8 |
| 20260505173703 | 75 | 247 | 3.5 | 5.2 | 0.00 | 0.00 | 0.00 | 78 | 100.8 |
| 20260505173202 | 75 | 261 | 3.5 | 9.6 | 0.00 | 0.00 | 0.00 | 78 | 100.8 |
| 20260505172702 | 75 | 206 | 3.5 | 5.2 | 0.00 | 0.00 | 0.00 | 79 | 100.8 |
| 20260505172202 | 75 | 215 | 3.5 | 7.8 | 0.00 | 0.00 | 0.00 | 80 | 100.8 |
| 20260505171702 | 74 | 243 | 2.6 | 5.2 | 0.00 | 0.00 | 0.00 | 81 | 100.8 |
| 20260505170702 | 74 | 211 | 4.3 | 7.8 | 0.00 | 0.00 | 0.00 | 81 | 100.8 |
| 20260505170202 | 74 | 168 | 1.7 | 3.5 | 0.00 | 0.00 | 0.00 | 81 | 100.8 |
| 20260505165702 | 74 | 260 | 1.7 | 5.2 | 0.00 | 0.00 | 0.00 | 81 | 100.8 |
| 20260505165202 | 74 | 227 | 4.3 | 6.1 | 0.00 | 0.00 | 0.00 | 81 | 100.8 |
| 20260505164703 | 74 | 239 | 1.7 | 8.7 | 0.00 | 0.00 | 0.00 | 81 | 100.8 |
| 20260505164203 | 74 | 228 | 4.3 | 7.0 | 0.00 | 0.00 | 0.00 | 81 | 100.8 |
| 20260505163702 | 73 | 243 | 2.6 | 4.3 | 0.00 | 0.00 | 0.00 | 82 | 100.8 |
| 20260505163202 | 73 | 222 | 1.7 | 5.2 | 0.00 | 0.00 | 0.00 | 83 | 100.8 |
| 20260505162702 | 73 | 250 | 3.5 | 4.3 | 0.00 | 0.00 | 0.00 | 84 | 100.8 |
| 20260505162202 | 72 | 248 | 4.3 | 5.2 | 0.00 | 0.00 | 0.00 | 84 | 100.8 |
| 20260505161703 | 72 | 264 | 3.5 | 5.2 | 0.00 | 0.00 | 0.00 | 84 | 100.8 |
| 20260505161202 | 72 | 261 | 2.6 | 8.7 | 0.00 | 0.00 | 0.00 | 85 | 100.8 |
| 20260505160702 | 72 | 233 | 2.6 | 8.7 | 0.00 | 0.00 | 0.00 | 86 | 100.8 |
| 20260505153203 | 71 | 182 | 3.5 | 8.7 | 0.00 | 0.00 | 0.00 | 87 | 100.8 |
| 20260505152702 | 72 | 214 | 3.5 | 4.3 | 0.00 | 0.00 | 0.00 | 87 | 100.8 |
| 20260505152202 | 72 | 231 | 5.2 | 7.0 | 0.00 | 0.00 | 0.00 | 87 | 100.8 |
| 20260505151202 | 71 | 221 | 1.7 | 5.2 | 0.00 | 0.00 | 0.00 | 87 | 100.8 |
| 20260505150703 | 71 | 240 | 4.3 | 7.8 | 0.00 | 0.00 | 0.00 | 88 | 100.8 |
| 20260505150202 | 71 | 212 | 5.2 | 8.7 | 0.00 | 0.00 | 0.00 | 88 | 100.8 |
| 20260505140202 | 70 | 239 | 3.5 | 8.7 | 0.00 | 0.00 | 0.00 | 89 | 100.8 |
| 20260505130202 | 70 | 259 | 2.6 | 4.3 | 0.00 | 0.00 | 0.00 | 89 | 100.7 |
| 20260505124702 | 70 | 184 | 7.0 | 9.6 | 0.00 | 0.00 | 0.00 | 89 | 100.7 |
| 20260505124202 | 70 | 209 | 4.3 | 7.8 | 0.00 | 0.00 | 0.00 | 89 | 100.7 |
| 20260505123702 | 70 | 197 | 4.3 | 5.2 | 0.00 | 0.00 | 0.00 | 89 | 100.7 |
| 20260505123202 | 70 | 197 | 1.7 | 6.1 | 0.00 | 0.00 | 0.00 | 89 | 100.7 |
| 20260505122702 | 70 | 176 | 1.7 | 5.2 | 0.00 | 0.00 | 0.00 | 89 | 100.7 |
| 20260505122202 | 70 | 167 | 6.1 | 7.8 | 0.00 | 0.00 | 0.00 | 89 | 100.7 |
| 20260505121703 | 70 | 191 | 3.5 | 8.7 | 0.00 | 0.00 | 0.00 | 89 | 100.7 |
| 20260505121202 | 69 | 219 | 4.3 | 5.2 | 0.00 | 0.00 | 0.00 | 89 | 100.7 |
| 20260505120702 | 70 | 193 | 3.5 | 8.7 | 0.00 | 0.00 | 0.00 | 89 | 100.7 |
| 20260505120201 | 70 | 181 | 6.1 | 9.6 | 0.00 | 0.00 | 0.00 | 89 | 100.7 |
| 20260505115202 | 69 | 225 | 2.6 | 5.2 | 0.00 | 0.00 | 0.00 | 89 | 100.7 |
| 20260505114703 | 69 | 205 | 2.6 | 7.0 | 0.00 | 0.00 | 0.00 | 89 | 100.7 |
| 20260505114202 | 69 | 257 | 1.7 | 2.6 | 0.00 | 0.00 | 0.00 | 89 | 100.7 |
| 20260505113704 | 69 | 271 | 3.5 | 7.8 | 0.00 | 0.00 | 0.00 | 89 | 100.7 |
| 20260505113202 | 69 | 212 | 5.2 | 10.4 | 0.00 | 0.00 | 0.00 | 90 | 100.7 |
| 20260505112703 | 69 | 223 | 5.2 | 5.2 | 0.00 | 0.00 | 0.00 | 89 | 100.7 |
| 20260505112202 | 69 | 235 | 6.1 | 6.1 | 0.00 | 0.00 | 0.00 | 89 | 100.7 |
| 20260505111703 | 69 | 218 | 7.0 | 11.3 | 0.00 | 0.00 | 0.00 | 89 | 100.7 |
| 20260505111201 | 69 | 247 | 4.3 | 11.3 | 0.00 | 0.00 | 0.00 | 89 | 100.7 |
| 20260505110702 | 69 | 188 | 5.2 | 6.1 | 0.00 | 0.00 | 0.00 | 89 | 100.7 |
| 20260505110203 | 70 | 236 | 2.6 | 8.7 | 0.00 | 0.00 | 0.00 | 88 | 100.7 |
| 20260505102202 | 70 | 219 | 4.3 | 7.8 | 0.00 | 0.00 | 0.00 | 87 | 100.7 |
| 20260505101702 | 70 | 221 | 3.5 | 7.8 | 0.00 | 0.00 | 0.00 | 87 | 100.7 |
| 20260505101202 | 70 | 221 | 3.5 | 7.8 | 0.00 | 0.00 | 0.00 | 87 | 100.7 |
| 20260505100702 | 70 | 196 | 7.8 | 9.6 | 0.00 | 0.00 | 0.00 | 87 | 100.7 |
| 20260505100202 | 70 | 247 | 2.6 | 6.1 | 0.00 | 0.00 | 0.00 | 87 | 100.7 |
| 20260505095702 | 70 | 260 | 2.6 | 4.3 | 0.00 | 0.00 | 0.00 | 86 | 100.7 |
| 20260505095202 | 70 | 242 | 3.5 | 8.7 | 0.00 | 0.00 | 0.00 | 87 | 100.7 |
| 20260505094203 | 70 | 200 | 1.7 | 8.7 | 0.00 | 0.00 | 0.00 | 86 | 100.7 |
| 20260505093702 | 70 | 229 | 3.5 | 5.2 | 0.00 | 0.00 | 0.00 | 86 | 100.7 |
| 20260505092702 | 70 | 254 | 3.5 | 7.0 | 0.00 | 0.00 | 0.00 | 87 | 100.7 |
| 20260505092201 | 70 | 216 | 6.1 | 7.0 | 0.00 | 0.00 | 0.00 | 87 | 100.7 |
| 20260505091702 | 70 | 204 | 1.7 | 4.3 | 0.00 | 0.00 | 0.00 | 86 | 100.7 |
| 20260505091202 | 70 | 233 | 6.1 | 13.9 | 0.00 | 0.00 | 0.00 | 87 | 100.7 |
| 20260505090702 | 70 | 179 | 2.6 | 11.3 | 0.00 | 0.00 | 0.00 | 87 | 100.7 |
| 20260505090201 | 70 | 244 | 1.7 | 6.1 | 0.00 | 0.00 | 0.00 | 87 | 100.7 |
| 20260505085202 | 70 | 255 | 4.3 | 8.7 | 0.00 | 0.00 | 0.00 | 87 | 100.7 |
| 20260505084703 | 70 | 226 | 4.3 | 6.1 | 0.00 | 0.00 | 0.00 | 87 | 100.7 |
| 20260505084202 | 70 | 218 | 3.5 | 9.6 | 0.00 | 0.00 | 0.00 | 87 | 100.7 |
| 20260505083702 | 70 | 264 | 5.2 | 13.9 | 0.00 | 0.00 | 0.00 | 87 | 100.7 |
| 20260505083201 | 70 | 246 | 5.2 | 7.0 | 0.00 | 0.00 | 0.00 | 87 | 100.8 |
| 20260505082702 | 70 | 234 | 1.7 | 4.3 | 0.00 | 0.00 | 0.00 | 87 | 100.8 |
| 20260505082202 | 70 | 241 | 3.5 | 8.7 | 0.00 | 0.00 | 0.00 | 87 | 100.8 |
| 20260505081202 | 70 | 249 | 4.3 | 9.6 | 0.00 | 0.00 | 0.00 | 86 | 100.8 |
| 20260505080702 | 70 | 219 | 2.6 | 7.8 | 0.00 | 0.00 | 0.00 | 86 | 100.8 |
| 20260505080202 | 70 | 205 | 1.7 | 7.8 | 0.00 | 0.00 | 0.00 | 86 | 100.8 |
| 20260505075702 | 70 | 213 | 2.6 | 5.2 | 0.00 | 0.00 | 0.00 | 86 | 100.8 |
| 20260505075203 | 70 | 188 | 2.6 | 8.7 | 0.00 | 0.00 | 0.00 | 86 | 100.8 |
| 20260505074702 | 70 | 240 | 3.5 | 7.0 | 0.00 | 0.00 | 0.00 | 86 | 100.8 |
| 20260505074202 | 70 | 209 | 3.5 | 5.2 | 0.00 | 0.00 | 0.00 | 86 | 100.8 |
| 20260505073702 | 70 | 180 | 7.8 | 9.6 | 0.00 | 0.00 | 0.00 | 86 | 100.8 |
| 20260505072702 | 70 | 224 | 5.2 | 6.1 | 0.00 | 0.00 | 0.00 | 86 | 100.8 |
| 20260505072203 | 70 | 224 | 2.6 | 7.8 | 0.00 | 0.00 | 0.00 | 86 | 100.8 |
| 20260505071703 | 70 | 228 | 5.2 | 7.8 | 0.00 | 0.00 | 0.00 | 86 | 100.8 |
| 20260505071202 | 70 | 209 | 3.5 | 8.7 | 0.00 | 0.00 | 0.00 | 85 | 100.8 |
| 20260505070203 | 70 | 215 | 2.6 | 5.2 | 0.00 | 0.00 | 0.00 | 85 | 100.8 |
| 20260505065702 | 70 | 214 | 3.5 | 10.4 | 0.00 | 0.00 | 0.00 | 85 | 100.8 |
| 20260505065202 | 70 | 229 | 5.2 | 13.0 | 0.00 | 0.00 | 0.00 | 85 | 100.8 |
| 20260505064702 | 70 | 239 | 4.3 | 9.6 | 0.00 | 0.00 | 0.00 | 85 | 100.8 |
| 20260505063702 | 70 | 224 | 4.3 | 8.7 | 0.00 | 0.00 | 0.00 | 85 | 100.8 |
| 20260505062703 | 70 | 225 | 6.1 | 9.6 | 0.00 | 0.00 | 0.00 | 84 | 100.9 |
| 20260505061702 | 70 | 220 | 4.3 | 9.6 | 0.00 | 0.00 | 0.00 | 84 | 100.9 |
| 20260505061202 | 71 | 198 | 3.5 | 7.0 | 0.00 | 0.00 | 0.00 | 84 | 100.9 |
| 20260505060704 | 71 | 198 | 4.3 | 10.4 | 0.00 | 0.00 | 0.00 | 84 | 100.9 |
| 20260505060202 | 71 | 227 | 5.2 | 12.2 | 0.00 | 0.00 | 0.00 | 83 | 100.9 |
| 20260505055702 | 71 | 205 | 8.7 | 8.7 | 0.00 | 0.00 | 0.00 | 83 | 100.9 |
| 20260505055202 | 71 | 205 | 6.1 | 9.6 | 0.00 | 0.00 | 0.00 | 83 | 100.9 |
| 20260505054702 | 71 | 245 | 3.5 | 5.2 | 0.00 | 0.00 | 0.00 | 83 | 100.9 |
| 20260505054202 | 71 | 212 | 2.6 | 4.3 | 0.00 | 0.00 | 0.00 | 83 | 100.9 |
| 20260505053702 | 71 | 210 | 7.0 | 9.6 | 0.00 | 0.00 | 0.00 | 83 | 100.9 |
| 20260505053203 | 71 | 236 | 1.7 | 7.0 | 0.00 | 0.00 | 0.00 | 83 | 100.9 |
| 20260505052703 | 71 | 188 | 6.1 | 7.8 | 0.00 | 0.00 | 0.00 | 83 | 100.9 |
| 20260505052202 | 71 | 212 | 1.7 | 7.0 | 0.00 | 0.00 | 0.00 | 83 | 100.9 |
| 20260505051702 | 71 | 219 | 0.9 | 6.1 | 0.00 | 0.00 | 0.00 | 83 | 100.9 |
| 20260505051202 | 71 | 240 | 2.6 | 8.7 | 0.00 | 0.00 | 0.00 | 83 | 100.9 |
| 20260505050702 | 71 | 217 | 1.7 | 6.1 | 0.00 | 0.00 | 0.00 | 83 | 100.9 |
| 20260505041704 | 72 | 189 | 2.6 | 5.2 | 0.00 | 0.00 | 0.00 | 80 | 100.9 |
| 20260505041202 | 72 | 204 | 5.2 | 8.7 | 0.00 | 0.00 | 0.00 | 80 | 100.9 |
| 20260505040702 | 72 | 214 | 2.6 | 8.7 | 0.00 | 0.00 | 0.00 | 80 | 100.9 |
| 20260505035202 | 73 | 183 | 3.5 | 5.2 | 0.00 | 0.00 | 0.00 | 79 | 100.9 |
| 20260505034702 | 73 | 173 | 6.1 | 9.6 | 0.00 | 0.00 | 0.00 | 79 | 100.9 |
| 20260505034202 | 73 | 171 | 5.2 | 8.7 | 0.00 | 0.00 | 0.00 | 79 | 100.9 |
| 20260505033702 | 73 | 213 | 3.5 | 5.2 | 0.00 | 0.00 | 0.00 | 78 | 100.9 |
| 20260505033202 | 73 | 201 | 5.2 | 8.7 | 0.00 | 0.00 | 0.00 | 78 | 100.9 |
| 20260505032703 | 73 | 221 | 0.9 | 7.0 | 0.00 | 0.00 | 0.00 | 77 | 100.9 |
| 20260505031702 | 73 | 174 | 3.5 | 7.0 | 0.00 | 0.00 | 0.00 | 77 | 100.9 |
| 20260505030702 | 74 | 178 | 2.6 | 8.7 | 0.00 | 0.00 | 0.00 | 76 | 100.9 |
| 20260505030203 | 74 | 208 | 3.5 | 6.1 | 0.00 | 0.00 | 0.00 | 75 | 100.9 |
| 20260505025703 | 74 | 191 | 1.7 | 10.4 | 0.00 | 0.00 | 0.00 | 75 | 100.9 |
| 20260505024202 | 74 | 194 | 5.2 | 5.2 | 0.00 | 0.00 | 0.00 | 74 | 100.9 |
| 20260505023702 | 74 | 221 | 2.6 | 6.1 | 0.00 | 0.00 | 0.00 | 74 | 100.9 |
| 20260505023202 | 74 | 189 | 5.2 | 7.8 | 0.00 | 0.00 | 0.00 | 73 | 100.8 |
| 20260505022702 | 75 | 204 | 4.3 | 7.0 | 0.00 | 0.00 | 0.00 | 73 | 100.8 |
| 20260505022202 | 75 | 179 | 5.2 | 10.4 | 0.00 | 0.00 | 0.00 | 72 | 100.8 |
| 20260505021702 | 75 | 191 | 1.7 | 10.4 | 0.00 | 0.00 | 0.00 | 71 | 100.8 |
| 20260505021202 | 75 | 187 | 3.5 | 10.4 | 0.00 | 0.00 | 0.00 | 71 | 100.8 |
| 20260505020702 | 75 | 188 | 6.1 | 8.7 | 0.00 | 0.00 | 0.00 | 70 | 100.8 |
| 20260505020202 | 75 | 208 | 3.5 | 5.2 | 0.00 | 0.00 | 0.00 | 68 | 100.9 |
| 20260505015702 | 75 | 205 | 3.5 | 6.1 | 0.00 | 0.00 | 0.00 | 68 | 100.9 |